| time (UTC) | temp F | wind direction | speed MPH | gust MPH | rain 1hr in | rain 24hr in | rain mn in | humidity % | barometer mb |
| 20260507003540 | 65 | 0 | 0.0 | 5.0 | 0.00 | 0.04 | 0.04 | 74 | 1013.6 |
| 20260507003039 | 65 | 84 | 2.0 | 6.0 | 0.00 | 0.04 | 0.04 | 74 | 1013.5 |
| 20260507002536 | 66 | 61 | 4.0 | 6.0 | 0.00 | 0.04 | 0.04 | 72 | 1013.5 |
| 20260507002037 | 66 | 94 | 4.0 | 6.0 | 0.00 | 0.04 | 0.04 | 72 | 1013.5 |
| 20260507001543 | 67 | 54 | 2.0 | 6.0 | 0.00 | 0.04 | 0.04 | 71 | 1013.3 |
| 20260507001036 | 67 | 63 | 2.0 | 6.0 | 0.00 | 0.04 | 0.04 | 71 | 1013.2 |
| 20260507000536 | 67 | 74 | 4.0 | 7.0 | 0.00 | 0.04 | 0.04 | 70 | 1013.3 |
| 20260507000046 | 67 | 74 | 4.0 | 7.0 | 0.00 | 0.04 | 0.04 | 69 | 1013.4 |
| 20260506235536 | 67 | 71 | 3.0 | 5.0 | 0.00 | 0.04 | 0.04 | 71 | 1013.2 |
| 20260506235029 | 67 | 44 | 3.0 | 8.0 | 0.00 | 0.04 | 0.04 | 69 | 1013.2 |
| 20260506234555 | 67 | 34 | 3.0 | 8.0 | 0.00 | 0.04 | 0.04 | 70 | 1013.2 |
| 20260506234033 | 67 | 71 | 4.0 | 7.0 | 0.00 | 0.04 | 0.04 | 68 | 1013.1 |
| 20260506233531 | 67 | 78 | 3.0 | 9.0 | 0.00 | 0.04 | 0.04 | 69 | 1013.1 |
| 20260506233048 | 67 | 71 | 5.0 | 9.0 | 0.00 | 0.04 | 0.04 | 69 | 1013.1 |
| 20260506232532 | 67 | 69 | 6.0 | 9.0 | 0.00 | 0.04 | 0.04 | 70 | 1013.0 |
| 20260506232031 | 67 | 79 | 4.0 | 6.0 | 0.00 | 0.04 | 0.04 | 70 | 1013.0 |
| 20260506231543 | 66 | 45 | 3.0 | 6.0 | 0.00 | 0.04 | 0.04 | 70 | 1013.1 |
| 20260506231030 | 66 | 77 | 3.0 | 6.0 | 0.00 | 0.04 | 0.04 | 70 | 1013.0 |
| 20260506230530 | 67 | 62 | 3.0 | 6.0 | 0.00 | 0.04 | 0.04 | 70 | 1013.0 |
| 20260506230046 | 67 | 84 | 3.0 | 6.0 | 0.00 | 0.04 | 0.04 | 70 | 1013.0 |
| 20260506225533 | 67 | 64 | 3.0 | 7.0 | 0.00 | 0.04 | 0.04 | 71 | 1012.8 |
| 20260506225030 | 66 | 39 | 4.0 | 7.0 | 0.00 | 0.04 | 0.04 | 70 | 1012.8 |
| 20260506224556 | 66 | 4 | 4.0 | 7.0 | 0.00 | 0.04 | 0.04 | 68 | 1012.7 |
| 20260506224032 | 66 | 51 | 4.0 | 7.0 | 0.00 | 0.04 | 0.04 | 69 | 1012.7 |
| 20260506223529 | 66 | 18 | 4.0 | 7.0 | 0.00 | 0.04 | 0.04 | 70 | 1012.8 |
| 20260506223040 | 66 | 41 | 3.0 | 7.0 | 0.00 | 0.04 | 0.04 | 70 | 1012.8 |
| 20260506222534 | 66 | 54 | 2.0 | 8.0 | 0.00 | 0.04 | 0.04 | 71 | 1012.7 |
| 20260506222034 | 65 | 75 | 3.0 | 8.0 | 0.00 | 0.04 | 0.04 | 70 | 1012.7 |
| 20260506221539 | 65 | 55 | 4.0 | 8.0 | 0.00 | 0.04 | 0.04 | 70 | 1012.6 |
| 20260506221034 | 65 | 63 | 4.0 | 7.0 | 0.00 | 0.04 | 0.04 | 70 | 1012.7 |
| 20260506220533 | 66 | 23 | 4.0 | 8.0 | 0.00 | 0.04 | 0.04 | 70 | 1012.6 |
| 20260506220039 | 66 | 349 | 4.0 | 8.0 | 0.00 | 0.04 | 0.04 | 69 | 1012.6 |
| 20260506215533 | 65 | 14 | 4.0 | 8.0 | 0.00 | 0.04 | 0.04 | 70 | 1012.7 |
| 20260506215030 | 65 | 52 | 4.0 | 8.0 | 0.00 | 0.04 | 0.04 | 69 | 1012.8 |
| 20260506214539 | 66 | 54 | 4.0 | 7.0 | 0.00 | 0.04 | 0.04 | 69 | 1012.9 |
| 20260506214032 | 65 | 58 | 4.0 | 7.0 | 0.00 | 0.04 | 0.04 | 71 | 1012.9 |
| 20260506213530 | 65 | 91 | 3.0 | 9.0 | 0.00 | 0.04 | 0.04 | 72 | 1012.9 |
| 20260506213044 | 65 | 353 | 5.0 | 9.0 | 0.00 | 0.04 | 0.04 | 69 | 1013.1 |
| 20260506212533 | 65 | 16 | 4.0 | 8.0 | 0.00 | 0.04 | 0.04 | 69 | 1012.9 |
| 20260506212033 | 65 | 48 | 4.0 | 9.0 | 0.00 | 0.04 | 0.04 | 72 | 1012.8 |
| 20260506211543 | 64 | 59 | 4.0 | 9.0 | 0.00 | 0.04 | 0.04 | 71 | 1013.1 |
| 20260506211030 | 64 | 2 | 4.0 | 8.0 | 0.00 | 0.04 | 0.04 | 71 | 1013.1 |
| 20260506210533 | 64 | 37 | 4.0 | 8.0 | 0.00 | 0.04 | 0.04 | 72 | 1013.1 |
| 20260506210041 | 64 | 62 | 3.0 | 6.0 | 0.00 | 0.04 | 0.04 | 71 | 1013.4 |
| 20260506205532 | 64 | 329 | 4.0 | 7.0 | 0.00 | 0.04 | 0.04 | 70 | 1013.2 |
| 20260506205035 | 64 | 27 | 3.0 | 9.0 | 0.00 | 0.04 | 0.04 | 71 | 1013.2 |
| 20260506204538 | 64 | 344 | 4.0 | 9.0 | 0.00 | 0.04 | 0.04 | 72 | 1013.2 |
| 20260506204035 | 63 | 13 | 3.0 | 9.0 | 0.00 | 0.04 | 0.04 | 73 | 1013.4 |
| 20260506203535 | 63 | 18 | 4.0 | 9.0 | 0.00 | 0.04 | 0.04 | 73 | 1013.2 |
| 20260506203046 | 63 | 17 | 5.0 | 9.0 | 0.00 | 0.04 | 0.04 | 72 | 1013.5 |
| 20260506202536 | 62 | 345 | 2.0 | 8.0 | 0.00 | 0.04 | 0.04 | 73 | 1013.5 |
| 20260506202035 | 62 | 310 | 5.0 | 9.0 | 0.00 | 0.04 | 0.04 | 73 | 1013.5 |
| 20260506201543 | 62 | 340 | 4.0 | 12.0 | 0.00 | 0.04 | 0.04 | 74 | 1013.6 |
| 20260506201034 | 62 | 44 | 6.0 | 12.0 | 0.00 | 0.04 | 0.04 | 73 | 1013.5 |
| 20260506200534 | 62 | 53 | 4.0 | 10.0 | 0.00 | 0.04 | 0.04 | 73 | 1013.7 |
| 20260506200043 | 62 | 15 | 7.0 | 10.0 | 0.00 | 0.04 | 0.04 | 73 | 1013.8 |
| 20260506195535 | 62 | 333 | 3.0 | 8.0 | 0.00 | 0.04 | 0.04 | 73 | 1013.8 |
| 20260506195036 | 62 | 16 | 4.0 | 8.0 | 0.00 | 0.04 | 0.04 | 74 | 1013.9 |
| 20260506194555 | 61 | 19 | 4.0 | 6.0 | 0.00 | 0.04 | 0.04 | 75 | 1014.1 |
| 20260506194035 | 61 | 23 | 4.0 | 10.0 | 0.00 | 0.04 | 0.04 | 75 | 1014.0 |
| 20260506193537 | 61 | 349 | 3.0 | 10.0 | 0.00 | 0.04 | 0.04 | 76 | 1014.0 |
| 20260506193038 | 61 | 13 | 7.0 | 10.0 | 0.00 | 0.04 | 0.04 | 74 | 1014.4 |
| 20260506192532 | 61 | 30 | 5.0 | 9.0 | 0.00 | 0.04 | 0.04 | 75 | 1014.3 |
| 20260506192032 | 61 | 13 | 4.0 | 9.0 | 0.00 | 0.04 | 0.04 | 75 | 1014.1 |
| 20260506191546 | 61 | 16 | 6.0 | 11.0 | 0.00 | 0.04 | 0.04 | 77 | 1014.2 |
| 20260506191035 | 60 | 25 | 3.0 | 11.0 | 0.00 | 0.04 | 0.04 | 78 | 1014.4 |
| 20260506190538 | 59 | 20 | 5.0 | 11.0 | 0.00 | 0.04 | 0.04 | 76 | 1014.4 |
| 20260506190047 | 59 | 349 | 4.0 | 8.0 | 0.00 | 0.04 | 0.04 | 80 | 1014.5 |
| 20260506185535 | 58 | 11 | 5.0 | 8.0 | 0.00 | 0.04 | 0.04 | 79 | 1014.5 |
| 20260506185035 | 58 | 19 | 5.0 | 10.0 | 0.00 | 0.04 | 0.04 | 79 | 1014.6 |
| 20260506184544 | 58 | 48 | 7.0 | 12.0 | 0.00 | 0.04 | 0.04 | 81 | 1014.7 |
| 20260506184035 | 58 | 39 | 7.0 | 12.0 | 0.00 | 0.04 | 0.04 | 80 | 1014.9 |
| 20260506183535 | 57 | 347 | 6.0 | 9.0 | 0.00 | 0.04 | 0.04 | 82 | 1014.6 |
| 20260506183043 | 57 | 15 | 4.0 | 9.0 | 0.00 | 0.04 | 0.04 | 82 | 1014.5 |
| 20260506182535 | 56 | 357 | 5.0 | 10.0 | 0.00 | 0.04 | 0.04 | 81 | 1015.0 |
| 20260506182035 | 56 | 30 | 5.0 | 10.0 | 0.00 | 0.04 | 0.04 | 82 | 1014.7 |
| 20260506181545 | 56 | 20 | 7.0 | 10.0 | 0.00 | 0.04 | 0.04 | 83 | 1014.7 |
| 20260506181036 | 56 | 300 | 4.0 | 10.0 | 0.00 | 0.04 | 0.04 | 85 | 1014.7 |
| 20260506180536 | 55 | 338 | 5.0 | 10.0 | 0.00 | 0.04 | 0.04 | 85 | 1014.7 |
| 20260506180052 | 55 | 319 | 4.0 | 10.0 | 0.00 | 0.04 | 0.04 | 86 | 1014.7 |
| 20260506175536 | 55 | 11 | 5.0 | 10.0 | 0.00 | 0.04 | 0.04 | 86 | 1014.8 |
| 20260506175032 | 55 | 322 | 5.0 | 10.0 | 0.00 | 0.04 | 0.04 | 86 | 1014.8 |
| 20260506174548 | 54 | 323 | 5.0 | 11.0 | 0.00 | 0.04 | 0.04 | 87 | 1014.6 |
| 20260506174032 | 54 | 14 | 6.0 | 13.0 | 0.00 | 0.04 | 0.04 | 89 | 1014.7 |
| 20260506173539 | 53 | 349 | 8.0 | 13.0 | 0.00 | 0.04 | 0.04 | 87 | 1014.7 |
| 20260506173048 | 53 | 53 | 7.0 | 11.0 | 0.00 | 0.04 | 0.04 | 88 | 1014.7 |
| 20260506172534 | 53 | 352 | 7.0 | 11.0 | 0.00 | 0.04 | 0.04 | 89 | 1014.9 |
| 20260506172036 | 53 | 5 | 6.0 | 12.0 | 0.00 | 0.04 | 0.04 | 89 | 1015.0 |
| 20260506171553 | 53 | 323 | 5.0 | 12.0 | 0.00 | 0.04 | 0.04 | 90 | 1015.0 |
| 20260506171035 | 53 | 9 | 7.0 | 12.0 | 0.00 | 0.04 | 0.04 | 90 | 1014.8 |
| 20260506170535 | 52 | 326 | 7.0 | 17.0 | 0.00 | 0.04 | 0.04 | 91 | 1014.7 |
| 20260506170043 | 52 | 26 | 9.0 | 17.0 | 0.00 | 0.04 | 0.04 | 90 | 1014.4 |
| 20260506165534 | 52 | 37 | 9.0 | 14.0 | 0.00 | 0.04 | 0.04 | 91 | 1014.3 |
| 20260506165036 | 52 | 319 | 10.0 | 14.0 | 0.00 | 0.04 | 0.04 | 91 | 1014.5 |
| 20260506164539 | 52 | 33 | 7.0 | 14.0 | 0.00 | 0.04 | 0.04 | 91 | 1014.6 |
| 20260506164035 | 52 | 17 | 10.0 | 14.0 | 0.00 | 0.04 | 0.04 | 91 | 1014.4 |
| 20260506163532 | 52 | 24 | 8.0 | 12.0 | 0.00 | 0.04 | 0.04 | 90 | 1014.8 |
| 20260506163049 | 52 | 15 | 5.0 | 11.0 | 0.00 | 0.04 | 0.04 | 91 | 1014.9 |
| 20260506162533 | 52 | 345 | 4.0 | 11.0 | 0.00 | 0.04 | 0.04 | 91 | 1015.0 |
| 20260506162033 | 51 | 32 | 7.0 | 11.0 | 0.00 | 0.04 | 0.04 | 92 | 1014.6 |
| 20260506161538 | 51 | 23 | 6.0 | 10.0 | 0.00 | 0.04 | 0.04 | 91 | 1014.5 |
| 20260506161033 | 51 | 29 | 5.0 | 11.0 | 0.00 | 0.04 | 0.04 | 92 | 1014.5 |
| 20260506160533 | 51 | 15 | 7.0 | 11.0 | 0.00 | 0.04 | 0.04 | 92 | 1014.2 |
| 20260506160046 | 51 | 328 | 8.0 | 11.0 | 0.00 | 0.04 | 0.04 | 92 | 1014.3 |
| 20260506155533 | 51 | 17 | 7.0 | 12.0 | 0.00 | 0.04 | 0.04 | 92 | 1014.0 |
| 20260506155036 | 51 | 23 | 9.0 | 12.0 | 0.00 | 0.04 | 0.04 | 91 | 1014.1 |
| 20260506154606 | 51 | 23 | 6.0 | 14.0 | 0.00 | 0.04 | 0.04 | 91 | 1013.9 |
| 20260506154033 | 51 | 41 | 8.0 | 14.0 | 0.00 | 0.04 | 0.04 | 91 | 1014.2 |
| 20260506153536 | 52 | 25 | 5.0 | 13.0 | 0.00 | 0.04 | 0.04 | 91 | 1014.1 |
| 20260506153047 | 52 | 44 | 6.0 | 15.0 | 0.00 | 0.04 | 0.04 | 91 | 1013.9 |
| 20260506152532 | 52 | 13 | 9.0 | 16.0 | 0.00 | 0.04 | 0.04 | 90 | 1013.6 |
| 20260506152033 | 52 | 27 | 11.0 | 19.0 | 0.01 | 0.04 | 0.04 | 89 | 1013.4 |
| 20260506151541 | 52 | 27 | 12.0 | 19.0 | 0.01 | 0.04 | 0.04 | 90 | 1013.0 |
| 20260506151035 | 52 | 28 | 14.0 | 19.0 | 0.02 | 0.04 | 0.04 | 91 | 1012.6 |
| 20260506150535 | 51 | 25 | 11.0 | 16.0 | 0.02 | 0.04 | 0.04 | 91 | 1013.0 |
| 20260506150052 | 51 | 49 | 8.0 | 13.0 | 0.02 | 0.04 | 0.04 | 92 | 1013.4 |
| 20260506145536 | 51 | 30 | 7.0 | 12.0 | 0.03 | 0.04 | 0.04 | 92 | 1013.7 |
| 20260506145033 | 51 | 32 | 6.0 | 16.0 | 0.03 | 0.04 | 0.04 | 92 | 1013.9 |
| 20260506144546 | 51 | 34 | 7.0 | 16.0 | 0.03 | 0.04 | 0.04 | 93 | 1013.9 |
| 20260506144033 | 51 | 10 | 8.0 | 12.0 | 0.03 | 0.04 | 0.04 | 93 | 1013.7 |
| 20260506143533 | 50 | 30 | 8.0 | 12.0 | 0.04 | 0.04 | 0.04 | 92 | 1013.8 |
| 20260506143042 | 50 | 51 | 5.0 | 12.0 | 0.04 | 0.04 | 0.04 | 92 | 1013.8 |
| 20260506142533 | 50 | 32 | 6.0 | 12.0 | 0.04 | 0.04 | 0.04 | 92 | 1013.8 |
| 20260506142029 | 50 | 9 | 8.0 | 12.0 | 0.03 | 0.03 | 0.03 | 91 | 1013.8 |
| 20260506141539 | 50 | 30 | 7.0 | 10.0 | 0.03 | 0.03 | 0.03 | 91 | 1014.4 |
| 20260506141031 | 50 | 345 | 4.0 | 9.0 | 0.02 | 0.02 | 0.02 | 91 | 1014.9 |
| 20260506140534 | 50 | 319 | 5.0 | 12.0 | 0.02 | 0.02 | 0.02 | 91 | 1015.1 |
| 20260506140054 | 50 | 349 | 6.0 | 12.0 | 0.02 | 0.02 | 0.02 | 91 | 1014.9 |
| 20260506135533 | 50 | 344 | 4.0 | 8.0 | 0.01 | 0.01 | 0.01 | 91 | 1014.7 |
| 20260506135032 | 50 | 23 | 4.0 | 15.0 | 0.01 | 0.01 | 0.01 | 90 | 1014.8 |
| 20260506134541 | 51 | 342 | 3.0 | 15.0 | 0.01 | 0.01 | 0.01 | 89 | 1015.2 |
| 20260506134032 | 51 | 359 | 10.0 | 15.0 | 0.01 | 0.01 | 0.01 | 89 | 1014.3 |
| 20260506133531 | 51 | 37 | 9.0 | 15.0 | 0.00 | 0.00 | 0.00 | 87 | 1014.1 |
| 20260506133052 | 51 | 25 | 8.0 | 12.0 | 0.00 | 0.00 | 0.00 | 86 | 1014.4 |
| 20260506132534 | 51 | 327 | 4.0 | 15.0 | 0.00 | 0.00 | 0.00 | 86 | 1015.4 |
| 20260506132030 | 51 | 309 | 6.0 | 15.0 | 0.00 | 0.00 | 0.00 | 86 | 1014.8 |
| 20260506131544 | 51 | 23 | 10.0 | 15.0 | 0.00 | 0.00 | 0.00 | 85 | 1012.9 |
| 20260506131031 | 52 | 51 | 10.0 | 17.0 | 0.00 | 0.00 | 0.00 | 85 | 1013.3 |
| 20260506130533 | 52 | 24 | 11.0 | 17.0 | 0.00 | 0.00 | 0.00 | 85 | 1013.4 |
| 20260506130044 | 52 | 44 | 8.0 | 14.0 | 0.00 | 0.00 | 0.00 | 85 | 1013.2 |
| 20260506125532 | 52 | 3 | 5.0 | 14.0 | 0.00 | 0.00 | 0.00 | 85 | 1014.0 |
| 20260506125032 | 52 | 7 | 6.0 | 15.0 | 0.00 | 0.00 | 0.00 | 86 | 1014.3 |
| 20260506124540 | 52 | 349 | 9.0 | 15.0 | 0.00 | 0.00 | 0.00 | 85 | 1013.9 |
| 20260506124032 | 52 | 333 | 7.0 | 13.0 | 0.00 | 0.00 | 0.00 | 86 | 1013.5 |
| 20260506123533 | 52 | 21 | 6.0 | 12.0 | 0.00 | 0.00 | 0.00 | 86 | 1013.4 |
| 20260506123039 | 52 | 23 | 6.0 | 12.0 | 0.00 | 0.00 | 0.00 | 86 | 1013.1 |
| 20260506122532 | 52 | 332 | 6.0 | 11.0 | 0.00 | 0.00 | 0.00 | 86 | 1012.9 |
| 20260506122036 | 52 | 355 | 7.0 | 16.0 | 0.00 | 0.00 | 0.00 | 86 | 1012.5 |
| 20260506121544 | 52 | 20 | 10.0 | 16.0 | 0.00 | 0.00 | 0.00 | 86 | 1012.3 |
| 20260506121033 | 52 | 336 | 9.0 | 14.0 | 0.00 | 0.00 | 0.00 | 86 | 1012.1 |
| 20260506120533 | 52 | 32 | 9.0 | 15.0 | 0.00 | 0.00 | 0.00 | 86 | 1012.1 |
| 20260506120047 | 52 | 44 | 11.0 | 15.0 | 0.00 | 0.00 | 0.00 | 86 | 1012.0 |
| 20260506115530 | 52 | 21 | 9.0 | 15.0 | 0.00 | 0.00 | 0.00 | 86 | 1011.9 |
| 20260506115030 | 52 | 342 | 10.0 | 15.0 | 0.00 | 0.00 | 0.00 | 86 | 1011.9 |
| 20260506114541 | 52 | 10 | 7.0 | 17.0 | 0.00 | 0.00 | 0.00 | 85 | 1011.9 |
| 20260506114033 | 53 | 13 | 8.0 | 17.0 | 0.00 | 0.00 | 0.00 | 85 | 1012.0 |
| 20260506113533 | 53 | 25 | 8.0 | 13.0 | 0.00 | 0.00 | 0.00 | 86 | 1012.0 |
| 20260506113047 | 53 | 2 | 8.0 | 12.0 | 0.00 | 0.00 | 0.00 | 85 | 1012.0 |
| 20260506112535 | 53 | 18 | 6.0 | 13.0 | 0.00 | 0.00 | 0.00 | 85 | 1012.1 |
| 20260506112034 | 53 | 323 | 7.0 | 14.0 | 0.00 | 0.00 | 0.00 | 85 | 1012.1 |
| 20260506111552 | 53 | 17 | 9.0 | 14.0 | 0.00 | 0.00 | 0.00 | 84 | 1012.0 |
| 20260506111035 | 54 | 53 | 8.0 | 12.0 | 0.00 | 0.00 | 0.00 | 84 | 1011.8 |
| 20260506110533 | 54 | 340 | 8.0 | 12.0 | 0.00 | 0.00 | 0.00 | 84 | 1011.9 |
| 20260506110048 | 54 | 342 | 5.0 | 12.0 | 0.00 | 0.00 | 0.00 | 85 | 1011.9 |
| 20260506105533 | 54 | 344 | 8.0 | 12.0 | 0.00 | 0.00 | 0.00 | 84 | 1011.9 |
| 20260506105033 | 54 | 348 | 8.0 | 13.0 | 0.00 | 0.00 | 0.00 | 84 | 1011.8 |
| 20260506104554 | 54 | 11 | 9.0 | 13.0 | 0.00 | 0.00 | 0.00 | 84 | 1011.7 |
| 20260506104030 | 54 | 317 | 8.0 | 12.0 | 0.00 | 0.00 | 0.00 | 84 | 1011.5 |
| 20260506103533 | 54 | 327 | 8.0 | 14.0 | 0.00 | 0.00 | 0.00 | 84 | 1011.4 |
| 20260506103043 | 54 | 331 | 8.0 | 14.0 | 0.00 | 0.00 | 0.00 | 85 | 1011.4 |
| 20260506102534 | 54 | 355 | 8.0 | 12.0 | 0.00 | 0.00 | 0.00 | 84 | 1011.2 |
| 20260506102034 | 54 | 47 | 7.0 | 10.0 | 0.00 | 0.00 | 0.00 | 85 | 1010.9 |
| 20260506101548 | 54 | 38 | 7.0 | 11.0 | 0.00 | 0.00 | 0.00 | 84 | 1010.8 |
| 20260506101032 | 54 | 8 | 7.0 | 11.0 | 0.00 | 0.00 | 0.00 | 85 | 1010.9 |
| 20260506100532 | 54 | 34 | 6.0 | 11.0 | 0.00 | 0.00 | 0.00 | 85 | 1010.8 |
| 20260506100046 | 54 | 4 | 7.0 | 11.0 | 0.00 | 0.00 | 0.00 | 85 | 1010.7 |
| 20260506095535 | 54 | 352 | 7.0 | 13.0 | 0.00 | 0.00 | 0.00 | 85 | 1010.5 |
| 20260506095033 | 54 | 20 | 8.0 | 13.0 | 0.00 | 0.00 | 0.00 | 84 | 1010.6 |
| 20260506094547 | 55 | 344 | 8.0 | 12.0 | 0.00 | 0.00 | 0.00 | 85 | 1010.6 |
| 20260506094033 | 55 | 13 | 6.0 | 11.0 | 0.00 | 0.00 | 0.00 | 85 | 1010.7 |
| 20260506093532 | 55 | 27 | 5.0 | 13.0 | 0.00 | 0.00 | 0.00 | 85 | 1010.7 |
| 20260506093047 | 55 | 23 | 7.0 | 13.0 | 0.00 | 0.00 | 0.00 | 85 | 1010.6 |
| 20260506092533 | 55 | 1 | 7.0 | 13.0 | 0.00 | 0.00 | 0.00 | 85 | 1010.4 |
| 20260506092033 | 55 | 307 | 7.0 | 12.0 | 0.00 | 0.00 | 0.00 | 85 | 1010.4 |
| 20260506091544 | 55 | 345 | 6.0 | 11.0 | 0.00 | 0.00 | 0.00 | 85 | 1010.3 |
| 20260506091034 | 55 | 350 | 5.0 | 11.0 | 0.00 | 0.00 | 0.00 | 85 | 1010.3 |
| 20260506090533 | 55 | 34 | 6.0 | 11.0 | 0.00 | 0.00 | 0.00 | 85 | 1010.1 |
| 20260506090041 | 55 | 357 | 5.0 | 11.0 | 0.00 | 0.00 | 0.00 | 85 | 1010.3 |
| 20260506085533 | 55 | 6 | 7.0 | 11.0 | 0.00 | 0.00 | 0.00 | 85 | 1010.3 |
| 20260506085033 | 55 | 16 | 6.0 | 13.0 | 0.00 | 0.00 | 0.00 | 85 | 1010.1 |
| 20260506084544 | 55 | 8 | 7.0 | 13.0 | 0.00 | 0.00 | 0.00 | 85 | 1010.0 |
| 20260506084033 | 55 | 353 | 7.0 | 10.0 | 0.00 | 0.00 | 0.00 | 85 | 1010.1 |
| 20260506083539 | 55 | 359 | 5.0 | 10.0 | 0.00 | 0.00 | 0.00 | 86 | 1010.1 |
| 20260506083050 | 55 | 335 | 5.0 | 10.0 | 0.00 | 0.00 | 0.00 | 86 | 1010.3 |
| 20260506082532 | 55 | 8 | 7.0 | 10.0 | 0.00 | 0.00 | 0.00 | 86 | 1010.2 |
| 20260506082036 | 55 | 33 | 6.0 | 10.0 | 0.00 | 0.00 | 0.00 | 87 | 1010.1 |
| 20260506081552 | 55 | 345 | 6.0 | 10.0 | 0.00 | 0.00 | 0.00 | 87 | 1010.1 |
| 20260506081039 | 55 | 27 | 6.0 | 9.0 | 0.00 | 0.00 | 0.00 | 86 | 1010.0 |
| 20260506080532 | 55 | 8 | 5.0 | 9.0 | 0.00 | 0.00 | 0.00 | 86 | 1010.0 |
| 20260506073043 | 56 | 347 | 3.0 | 9.0 | 0.00 | 0.00 | 0.00 | 86 | 1009.8 |
| 20260506072536 | 56 | 357 | 4.0 | 10.0 | 0.00 | 0.00 | 0.00 | 86 | 1009.8 |
| 20260506072033 | 56 | 350 | 6.0 | 10.0 | 0.00 | 0.00 | 0.00 | 85 | 1009.9 |
| 20260506071542 | 56 | 330 | 5.0 | 10.0 | 0.00 | 0.00 | 0.00 | 85 | 1009.9 |
| 20260506071033 | 57 | 13 | 4.0 | 10.0 | 0.00 | 0.00 | 0.00 | 85 | 1009.8 |
| 20260506070538 | 57 | 2 | 5.0 | 10.0 | 0.00 | 0.00 | 0.00 | 84 | 1009.9 |
| 20260506062033 | 59 | 25 | 4.0 | 8.0 | 0.00 | 0.00 | 0.00 | 81 | 1009.2 |
| 20260506061542 | 59 | 20 | 4.0 | 8.0 | 0.00 | 0.00 | 0.00 | 81 | 1009.2 |
| 20260506061034 | 59 | 35 | 5.0 | 8.0 | 0.00 | 0.00 | 0.00 | 82 | 1009.2 |
| 20260506060533 | 59 | 32 | 3.0 | 5.0 | 0.00 | 0.00 | 0.00 | 81 | 1009.3 |
| 20260506051035 | 63 | 23 | 8.0 | 14.0 | 0.00 | 0.00 | 0.00 | 78 | 1009.6 |
| 20260506050533 | 63 | 60 | 7.0 | 12.0 | 0.00 | 0.00 | 0.00 | 78 | 1009.5 |
| 20260506045038 | 64 | 39 | 5.0 | 11.0 | 0.00 | 0.00 | 0.00 | 76 | 1009.5 |
| 20260506044543 | 64 | 20 | 5.0 | 11.0 | 0.00 | 0.00 | 0.00 | 76 | 1009.4 |
| 20260506044034 | 64 | 11 | 8.0 | 11.0 | 0.00 | 0.00 | 0.00 | 75 | 1009.5 |
| 20260506043532 | 65 | 24 | 6.0 | 12.0 | 0.00 | 0.00 | 0.00 | 75 | 1009.3 |
| 20260506043040 | 65 | 51 | 7.0 | 12.0 | 0.00 | 0.00 | 0.00 | 75 | 1009.2 |
| 20260506042536 | 65 | 43 | 7.0 | 10.0 | 0.00 | 0.00 | 0.00 | 75 | 1009.2 |
| 20260506042033 | 65 | 44 | 5.0 | 12.0 | 0.00 | 0.00 | 0.00 | 76 | 1009.3 |
| 20260506041548 | 65 | 18 | 7.0 | 12.0 | 0.00 | 0.00 | 0.00 | 75 | 1009.2 |
| 20260506041032 | 65 | 63 | 3.0 | 7.0 | 0.00 | 0.00 | 0.00 | 74 | 1009.2 |
| 20260506040532 | 66 | 18 | 3.0 | 6.0 | 0.00 | 0.00 | 0.00 | 74 | 1009.2 |
| 20260506040046 | 66 | 25 | 4.0 | 7.0 | 0.00 | 0.00 | 0.00 | 73 | 1009.1 |
| 20260506035535 | 66 | 8 | 3.0 | 7.0 | 0.00 | 0.00 | 0.00 | 73 | 1008.9 |
| 20260506035035 | 66 | 36 | 4.0 | 8.0 | 0.00 | 0.00 | 0.00 | 72 | 1008.7 |
| 20260506034543 | 67 | 37 | 4.0 | 8.0 | 0.00 | 0.00 | 0.00 | 72 | 1008.7 |
| 20260506034031 | 67 | 37 | 5.0 | 8.0 | 0.00 | 0.00 | 0.00 | 72 | 1008.8 |
| 20260506033537 | 67 | 359 | 4.0 | 8.0 | 0.00 | 0.00 | 0.00 | 72 | 1009.0 |
| 20260506033043 | 67 | 15 | 4.0 | 8.0 | 0.00 | 0.00 | 0.00 | 72 | 1008.9 |
| 20260506032536 | 67 | 16 | 5.0 | 11.0 | 0.00 | 0.00 | 0.00 | 72 | 1008.9 |
| 20260506032033 | 67 | 359 | 6.0 | 11.0 | 0.00 | 0.00 | 0.00 | 71 | 1009.0 |
| 20260506031550 | 67 | 334 | 5.0 | 7.0 | 0.00 | 0.00 | 0.00 | 72 | 1008.9 |
| 20260506031038 | 67 | 4 | 5.0 | 8.0 | 0.00 | 0.00 | 0.00 | 72 | 1008.8 |
| 20260506030533 | 68 | 4 | 5.0 | 8.0 | 0.00 | 0.00 | 0.00 | 72 | 1008.7 |
| 20260506030052 | 68 | 19 | 4.0 | 8.0 | 0.00 | 0.00 | 0.00 | 71 | 1008.6 |
| 20260506025532 | 68 | 39 | 5.0 | 8.0 | 0.00 | 0.00 | 0.00 | 71 | 1008.3 |
| 20260506025036 | 68 | 2 | 5.0 | 8.0 | 0.00 | 0.00 | 0.00 | 71 | 1008.2 |
| 20260506024555 | 68 | 52 | 4.0 | 7.0 | 0.00 | 0.00 | 0.00 | 70 | 1008.1 |
| 20260506024033 | 69 | 4 | 4.0 | 7.0 | 0.00 | 0.00 | 0.00 | 70 | 1007.9 |
| 20260506023534 | 69 | 355 | 3.0 | 10.0 | 0.00 | 0.00 | 0.00 | 69 | 1007.7 |
| 20260506023058 | 69 | 15 | 6.0 | 10.0 | 0.00 | 0.00 | 0.00 | 68 | 1007.5 |
| 20260506022532 | 70 | 28 | 6.0 | 11.0 | 0.00 | 0.00 | 0.00 | 68 | 1007.3 |
| 20260506022032 | 70 | 23 | 8.0 | 11.0 | 0.00 | 0.00 | 0.00 | 68 | 1007.3 |
| 20260506021554 | 70 | 23 | 7.0 | 11.0 | 0.00 | 0.00 | 0.00 | 67 | 1006.9 |
| 20260506021032 | 70 | 346 | 8.0 | 12.0 | 0.00 | 0.00 | 0.00 | 67 | 1006.9 |
| 20260506020532 | 71 | 7 | 7.0 | 15.0 | 0.00 | 0.00 | 0.00 | 67 | 1006.8 |
| 20260506020042 | 71 | 23 | 9.0 | 15.0 | 0.00 | 0.00 | 0.00 | 67 | 1006.8 |
| 20260506015535 | 71 | 34 | 10.0 | 13.0 | 0.00 | 0.00 | 0.00 | 67 | 1006.5 |
| 20260506015034 | 72 | 26 | 9.0 | 14.0 | 0.00 | 0.00 | 0.00 | 66 | 1006.4 |
| 20260506014544 | 72 | 322 | 9.0 | 14.0 | 0.00 | 0.00 | 0.00 | 67 | 1006.2 |
| 20260506014032 | 73 | 20 | 7.0 | 12.0 | 0.00 | 0.00 | 0.00 | 67 | 1006.2 |
| 20260506013532 | 73 | 11 | 6.0 | 9.0 | 0.00 | 0.00 | 0.00 | 69 | 1006.0 |
| 20260506013039 | 74 | 18 | 5.0 | 9.0 | 0.00 | 0.00 | 0.00 | 67 | 1005.9 |
| 20260506012533 | 75 | 12 | 7.0 | 12.0 | 0.00 | 0.00 | 0.00 | 66 | 1005.7 |
| 20260506012032 | 75 | 35 | 7.0 | 12.0 | 0.00 | 0.00 | 0.00 | 66 | 1005.6 |
| 20260506011539 | 75 | 352 | 8.0 | 12.0 | 0.00 | 0.00 | 0.00 | 65 | 1005.4 |
| 20260506011032 | 76 | 13 | 7.0 | 15.0 | 0.00 | 0.00 | 0.00 | 66 | 1005.4 |
| 20260506010532 | 77 | 20 | 7.0 | 16.0 | 0.00 | 0.00 | 0.00 | 65 | 1005.3 |
| 20260506010048 | 77 | 19 | 9.0 | 16.0 | 0.00 | 0.00 | 0.00 | 63 | 1005.1 |
| 20260506005533 | 78 | 32 | 7.0 | 14.0 | 0.00 | 0.00 | 0.00 | 64 | 1004.8 |
| 20260506005032 | 78 | 10 | 7.0 | 14.0 | 0.00 | 0.00 | 0.00 | 63 | 1004.7 |
| 20260506004549 | 79 | 38 | 9.0 | 13.0 | 0.00 | 0.00 | 0.00 | 62 | 1004.7 |
| 20260506004034 | 80 | 344 | 5.0 | 12.0 | 0.00 | 0.00 | 0.00 | 61 | 1004.7 |